Regional Weather Roundup
Issued by NWS New Orleans/Baton Rouge, LA

Home | Current Version | Previous Version | Text Only | Print | Product List | Glossary On
Versions: 1 2 3 4 5 6 7 8 9 10 11 12 13 14 15 16 17 18 19 20 21 22 23 24 25 26 27
000
ASUS44 KLIX 051809
RWRLIX
NEW ORLEANS REGIONAL WEATHER ROUNDUP
NATIONAL WEATHER SERVICE NEW ORLEANS LA
1200 PM CST MON DEC 05 2016

NOTE: "FAIR" INDICATES FEW OR NO CLOUDS BELOW 12,000 FEET WITH NO
      SIGNIFICANT WEATHER AND/OR OBSTRUCTIONS TO VISIBILITY.
      SKY/WX - SKY CONDITION AND SIGNIFICANT WEATHER.
      TMP - AIR TEMPERATURE.     DP    - DEWPOINT TEMPERATURE.
      RH  - RELATIVE HUMIDITY.   PRES  - PRESSURE.
      HI  - HEAT INDEX.          WCI   - WIND CHILL INDEX.

*  THESE STATIONS ARE NOT NWS OR FAA STATIONS AND ARE NOT UNDER
   NWS QUALITY CONTROL.

LAZ038-040-048-061>063-065>067-069-051900-
SOUTHEAST LOUISIANA

CITY           SKY/WX    TMP DP  RH WIND       PRES   REMARKS
N.O. AUDUBON   NOT AVBL
N.O. INTL ARPT LGT RAIN  60  60 100 NW7       29.81R
6HR MIN TEMP:  58; 6HR MAX TEMP:  60; 6HR PCP:  1.27;

N.O. LAKEFRONT LGT RAIN  60  60 100 N12       29.80F FOG
6HR MIN TEMP:  60; 6HR MAX TEMP:  61; 6HR PCP:  0.42;

N.O. DOWNTOWN* RAIN      61  60  97 N8        29.79F FOG
6HR MIN TEMP:  60; 6HR MAX TEMP:  62;

RESERVE*       TSTM      60  59  94 N7        29.80S
6HR MIN TEMP:  59; 6HR MAX TEMP:  61; 6HR PCP:  0.24;

SLIDELL        TSTM      58  58 100 N8        29.80R VSB 1/2
6HR MIN TEMP:  58; 6HR MAX TEMP:  59; 6HR PCP:  0.79;

BATON ROUGE    RAIN      55  55 100 NE9       29.79F FOG
6HR MIN TEMP:  54; 6HR MAX TEMP:  55; 6HR PCP:  0.75;

BOOTHVILLE     CLOUDY    68  68 100 E7        29.74F FOG
6HR MIN TEMP:  61; 6HR MAX TEMP:  68; 6HR PCP:  0.11;

BELLE CHASSE   TSTM      63  63 100 VRB6      29.78F FOG
6HR MIN TEMP:  60; 6HR MAX TEMP:  63; 6HR PCP:  0.20;

BOGALUSA*      CLOUDY    57  55  91 N12       29.83F THUNDER
6HR MIN TEMP:  57; 6HR MAX TEMP:  58; 6HR PCP:  0.28;

GALLIANO*      RAIN      66  64  91 N6        29.76F
6HR MIN TEMP:  62; 6HR MAX TEMP:  66; 6HR PCP:  0.24;

NEW ROADS*     LGT RAIN  53  53  99 CALM      29.82F
6HR MIN TEMP:  51; 6HR MAX TEMP:  53; 6HR PCP:  0.56;

GONZALES*      TSTM      57  56  97 CALM      29.80F VSB 3/4
6HR MIN TEMP:  56; 6HR MAX TEMP:  59; 6HR PCP:  2.42;

HAMMOND*       TSTM      55  54  94 CALM      29.82F VSB 3/4
HOUMA*         NOT AVBL
PORT FOURCHON* CLOUDY    72  70  94 CALM      29.74F FOG

$$

MSZ070-080>082-051900-
SOUTHERN MISSISSIPPI

CITY           SKY/WX    TMP DP  RH WIND       PRES   REMARKS
MCCOMB         RAIN      53  51  93 VRB5      29.83F FOG
6HR MIN TEMP:  51; 6HR MAX TEMP:  53; 6HR PCP:  0.30;

GULFPORT       LGT RAIN  61  61 100 NE10      29.76F FOG
6HR MIN TEMP:  58; 6HR MAX TEMP:  61; 6HR PCP:  0.02;

BILOXI         LGT RAIN  61  61 100 NE14      29.76F FOG
6HR MIN TEMP:  58; 6HR MAX TEMP:  61; 6HR PCP:  0.02;

PASCAGOULA     CLOUDY    63  60  90 NE6       29.79F FOG
6HR MIN TEMP:  58; 6HR MAX TEMP:  63; 6HR PCP: TRACE;

STENNIS ARPT*  TSTM      59  55  88 NE8       29.77F

$$

COASTAL OBSERVATIONS
LAKE AND NEARSHORE STATIONS

STATION/POSITION TIME  TEMP    WIND        PRES    WAVE
                       AIR SEA DIR/SP/G            HT/PER
                 (UTC) (F)     (DEG/KT/KT) (MB)    (FT/S)
PASCAGOULA       1748   65      40/  9/ 11 1008.0
WAVELAND YACHT   1748   60 61  320/  9/ 12 1008.5
GRAND ISLE       1748   71 68  140/  5/  7 1007.1
SOUTHWEST PASS   1748          170/ 19/ 23   N/A
NEW CANAL        1748   60 62   30/ 13/ 15 1007.8
SHELL BEACH      1748   62 64   70/ 16/ 19 1007.5

OFFSHORE STATIONS

STATION/POSITION TIME  TEMP    WIND        PRES    WAVE
                       AIR SEA DIR/SP/G            HT/PER
                 (UTC) (F)     (DEG/KT/KT) (MB)    (FT/S)
64 S DAUPHIN ISL 1750   76 75  160/ 17/ 21 1007.5    5/ 8

$$





USA.gov is the U.S. government's official web portal to all federal, state and local government web resources and services.